Regional Weather Roundup
Issued by NWS

Home | Current Version | Previous Version | Text Only | Print | Product List | Glossary On
Versions: 1 2 3 4 5 6 7 8 9 10 11 12 13 14 15 16 17 18 19 20 21 22 23 24 25 26 27
000
ASUS46 KPQR 231610
RWROR

OREGON REGIONAL WEATHER ROUNDUP
NATIONAL WEATHER SERVICE PORTLAND OR
900 AM PDT WED AUG 23 2017

NOTE: "FAIR" INDICATES FEW OR NO CLOUDS BELOW 12,000 FEET WITH
NO SIGNIFICANT WEATHER AND/OR OBSTRUCTIONS TO VISIBILITY.

ORZ001>013-231700-
NORTHWEST OREGON


CITY           SKY/WX    TMP DP  RH WIND       PRES   REMARKS
ASTORIA        CLOUDY    62  56  80 N6        30.06S
NEWPORT        FOG       55  55 100 N3        30.09S VSB 1/4
PORTLAND       PTSUNNY   63  58  83 CALM      30.04S
VANCOUVER WA   CLOUDY    64  59  83 VRB5      30.03F
SCAPPOOSE      SUNNY     67  56  67 N9        30.03S
HILLSBORO      SUNNY     64  56  75 W6        30.04S
AURORA         PTSUNNY   64  55  72 NE7       30.05S
MCMINNVILLE    SUNNY     64  57  78 CALM      30.05S
SALEM          MOSUNNY   64  56  75 NE5       30.03S
CORVALLIS      MOSUNNY   63  55  77 CALM      30.04F
EUGENE         PTSUNNY   61  57  87 CALM      30.05R
$$

ORZ021-028-231700-
SOUTHWEST OREGON


CITY           SKY/WX    TMP DP  RH WIND       PRES   REMARKS
NORTH BEND     CLOUDY    55  55 100 W3        30.08S FOG
BROOKINGS      LGT RAIN  53  53 100 CALM      30.04S VSB 1/2
ROSEBURG       MOSUNNY   64  57  78 CALM      30.04S
SEXTON SUMMIT  MOSUNNY   66  53  63 SE6       30.12S HAZE
GRANTS PASS    FAIR      66  57  72 CALM      30.06S
MEDFORD        PTSUNNY   70  57  63 NW3       30.02S SMOKE
$$

ORZ014>016-041-231700-
COLUMBIA GORGE


CITY           SKY/WX    TMP DP  RH WIND       PRES   REMARKS
TROUTDALE      CLOUDY    64  58  80 SW3       30.04R
HOOD RIVER     MOSUNNY   70  55  60 CALM      29.99S
THE DALLES     SUNNY     75  59  57 NW12      29.96S
$$

ORZ029>031-041-044-049-050-061>064-502-503-505>511-231700-
EASTERN OREGON


CITY           SKY/WX    TMP DP  RH WIND       PRES   REMARKS
MADRAS         PTSUNNY   63  52  67 MISG      30.08S
REDMOND        CLOUDY    64  48  56 NE3       30.09S HAZE
BEND           CLOUDY    68  52  56 S3        30.11S HAZE
PRINEVILLE     CLOUDY    64  48  55 NE3       30.10F
KLAMATH FALLS  CLOUDY    63  58  83 CALM      30.15S
LAKEVIEW       LGT RAIN N/A N/A N/A SW6       30.20R
HERMISTON      MOSUNNY   78  57  48 W10       29.95S
PENDLETON      PTSUNNY   74  50  42 SW6       30.00S
JOHN DAY       PTSUNNY   71  44  38 CALM      30.12S
MEACHAM        CLOUDY    60  45  57 CALM      30.11S
LA GRANDE      NOT AVBL
BAKER CITY     CLOUDY    71  47  42 CALM      30.09R
BURNS          CLOUDY    69  43  38 CALM      30.12S HAZE
ROME             N/A     79  49  34 SE8       30.11R
ONTARIO        MOSUNNY   69  54  58 CALM      30.02
$$




USA.gov is the U.S. government's official web portal to all federal, state and local government web resources and services.